Theta_e
336 335 335 334 332 333 332 338 337 334 334 333 333 332 330 330 328 327 328 328 329 331 329 328 327 327 327 327 326 324 323 323 323 323 322 322 322 322 321 321 320 320 319
334 332 331 333 331 330 332 336 334 333 332 332 332 331 330 327 327 327 327 327 326 328 330 329 329 328 327 327 325 323 323 323 323 322 322 321 321 320 319 319 319 318 318
334 331 330 331 330 330 330 334 333 332 330 330 330 329 328 326 326 326 326 327 324 324 327 329 329 328 327 326 324 323 322 322 322 322 321 320 320 319 319 318 318 317 317
334 333 329 329 327 326 328 331 330 329 329 328 327 327 327 326 325 326 325 326 326 324 325 326 327 328 327 326 324 324 323 322 322 321 320 319 319 318 318 318 317 317 317
333 332 330 330 326 323 325 329 329 329 327 326 326 326 326 326 325 324 325 326 327 326 326 324 324 324 326 326 324 324 324 323 322 321 320 319 318 318 317 317 316 316 316
330 330 331 327 327 322 322 327 328 329 327 326 323 324 326 326 326 325 324 324 325 326 326 327 326 324 322 325 325 324 325 324 323 322 321 320 319 318 317 317 316 316 315
329 329 327 325 326 321 321 323 328 327 325 327 321 321 323 324 324 324 325 323 324 325 326 326 326 324 324 323 325 325 325 326 325 324 323 322 321 319 318 317 317 316 316
329 327 325 324 322 321 321 326 327 325 324 325 321 320 313 317 321 324 325 324 325 324 324 325 325 325 325 324 323 325 326 327 327 326 325 325 324 323 320 319 319 318 317
327 326 325 323 323 322 321 324 327 326 321 324 325 320 314 312 317 322 323 323 323 322 323 324 324 324 325 325 323 322 320 321 326 329 329 327 326 325 324 323 322 320 320
324 324 324 323 323 324 323 325 326 327 325 321 324 323 324 320 315 314 321 323 323 322 323 323 323 324 323 324 322 318 315 315 318 324 328 329 329 328 326 326 325 324 323
322 321 322 321 322 323 326 327 326 325 325 323 322 323 323 323 322 317 313 317 321 321 323 325 324 325 326 325 325 322 313 311 313 319 323 326 328 329 329 328 327 326 325
322 322 320 320 320 321 325 326 325 325 325 324 323 321 321 319 318 317 315 317 318 320 322 323 325 326 326 326 323 317 313 310 311 314 318 321 323 325 326 328 329 329 327
321 320 320 320 317 319 322 324 324 323 323 323 324 323 323 322 321 319 317 315 315 319 321 324 325 325 324 327 325 316 315 308 309 311 314 316 318 320 322 324 325 327 328
324 325 321 319 319 317 318 318 319 319 321 322 323 324 323 323 323 321 318 316 311 314 316 317 321 323 324 324 322 313 323 308 307 307 309 311 313 315 316 318 320 322 324
323 323 322 321 320 319 317 317 316 316 317 319 319 320 321 322 324 323 322 320 316 310 311 317 317 322 323 324 322 326 325 316 307 306 306 307 310 311 312 313 315 316 318
324 323 322 320 320 320 321 318 316 317 316 316 317 317 318 318 322 322 320 320 320 316 311 315 317 321 323 321 320 325 325 314 309 305 304 304 306 308 309 310 311 312 313
323 321 323 322 321 320 319 318 318 316 315 316 316 315 316 317 316 317 318 317 318 317 312 315 317 320 321 324 324 325 323 324 325 307 304 304 303 303 304 306 306 308 309
322 322 322 322 320 319 319 319 318 318 316 314 315 316 316 317 316 317 316 315 315 315 312 310 315 315 317 321 325 326 324 324 326 315 305 303 303 302 302 302 302 303 304
320 321 321 320 320 320 320 321 322 322 321 320 319 316 316 315 315 316 316 315 316 316 315 312 314 321 323 324 324 325 326 328 326 315 307 304 303 303 302 301 301 301 302
321 320 320 320 320 321 321 322 323 323 322 321 323 322 322 322 322 322 322 321 320 319 320 319 319 319 321 323 323 321 322 326 325 324 317 312 310 306 303 303 302 301 301
320 322 322 322 322 310 295 299 318 320 320 321 322 322 322 319 310 314 323 323 322 321 321 320 317 319 320 320 320 322 321 323 325 327 326 327 326 324 304 297 297 298 298
305 304 301 299 297 293 289 290 293 310 315 317 317 318 320 310 309 301 301 302 310 317 317 316 316 314 315 318 320 319 318 316 314 324 320 318 296 288 289 290 291 293 294
297 295 295 294 289 288 287 288 288 295 302 307 309 307 310 313 305 310 304 297 298 296 297 309 311 313 313 313 307 312 313 313 312 306 299 305 286 284 286 287 288 288 288
292 290 290 290 288 286 286 287 287 297 301 292 288 288 290 292 290 290 295 301 307 290 288 293 290 285 283 284 286 292 293 294 290 287 289 285 282 280 283 284 286 287 287
291 289 289 288 289 286 286 286 293 301 292 288 286 285 286 286 286 287 293 295 290 283 285 284 283 282 282 282 281 288 287 288 289 286 281 285 281 280 280 281 283 284 284
289 289 288 289 286 288 284 285 290 290 286 284 283 283 283 283 284 284 288 290 282 280 280 279 279 279 279 278 279 278 278 283 284 283 279 281 281 281 277 281 281 283 283
Wind_Speed
10 7 7 7 8 7 11 11 13 10 12 11 11 10 9 6 7 5 9 10 10 14 16 15 14 14 14 14 13 13 13 12 12 12 12 10 9 9 9 9 10 10 9
8 9 8 8 7 7 10 11 12 10 11 11 11 10 9 8 9 8 9 9 9 11 11 14 14 14 14 13 13 12 12 12 11 11 11 10 9 9 9 8 9 8 9
10 10 8 8 8 8 9 10 12 11 10 10 11 9 9 9 9 8 9 11 8 9 10 11 14 14 14 13 12 12 11 11 10 10 10 9 9 9 9 9 9 9 9
12 12 9 8 9 7 6 9 11 12 11 10 9 9 8 8 10 9 7 8 10 7 6 8 9 11 13 14 13 12 12 11 11 11 11 11 11 11 10 10 10 10 11
14 12 9 10 12 8 6 10 11 12 11 10 10 9 8 8 9 9 9 8 10 11 10 11 7 8 9 11 13 13 13 13 13 13 13 13 13 13 12 12 12 12 12
11 13 10 12 12 10 6 9 13 11 11 11 10 9 8 7 7 8 9 8 8 8 8 11 10 9 8 10 12 13 14 15 15 15 15 15 15 14 14 14 14 14 14
3 12 9 12 12 11 12 10 12 15 11 10 10 8 7 7 7 8 8 8 10 10 10 8 8 8 10 10 11 15 16 17 17 17 17 17 16 16 16 16 16 16 17
10 12 13 12 13 11 11 14 14 13 11 12 11 11 7 5 7 8 8 8 10 9 10 11 11 10 8 10 13 16 18 18 19 19 19 18 17 17 18 18 19 19 19
12 11 14 13 13 11 11 13 14 17 13 13 15 11 8 7 9 9 10 8 9 8 9 11 12 12 12 10 9 14 16 15 17 18 19 19 20 21 21 21 21 22 22
8 9 15 13 13 10 13 13 14 12 13 13 10 12 10 6 11 7 9 11 10 11 12 10 12 13 13 11 13 11 14 18 19 20 19 18 20 22 22 23 23 23 24
7 6 12 11 12 9 13 15 14 13 12 12 12 12 9 6 11 7 8 8 8 10 10 11 11 12 14 13 11 13 17 15 20 23 23 23 23 21 21 24 26 26 26
5 8 9 9 9 9 13 12 13 16 13 12 10 8 11 11 8 8 7 9 12 11 11 11 11 10 11 11 14 14 15 19 19 21 24 25 25 25 26 26 26 27 28
5 7 10 10 8 8 10 12 12 13 13 12 14 11 9 8 9 8 8 7 8 9 8 11 11 10 10 9 9 14 17 17 20 24 26 26 25 26 27 28 29 28 29
6 10 9 11 12 11 10 8 6 7 9 9 13 12 9 8 9 9 8 9 9 10 10 11 10 10 8 9 11 17 16 18 21 22 23 24 25 25 26 27 27 28 30
7 10 9 11 12 12 11 10 8 8 8 8 9 11 9 10 11 9 9 10 10 10 13 12 10 10 9 9 12 12 14 15 20 20 23 25 26 25 25 26 28 29 30
8 9 9 9 9 11 13 13 10 9 10 8 8 8 6 4 8 8 8 6 7 8 13 6 9 9 9 8 11 13 14 14 16 18 20 23 25 26 26 26 27 28 28
8 9 10 11 10 9 10 10 11 10 10 8 8 10 11 9 7 5 3 4 7 7 9 9 9 12 14 15 14 14 13 15 14 18 20 22 22 24 25 27 28 29 29
7 9 9 10 10 9 9 10 10 10 13 15 12 11 12 8 10 9 6 8 9 10 9 16 13 11 16 17 18 18 14 14 15 16 19 20 25 27 26 26 27 26 27
8 8 8 9 10 11 11 12 13 14 15 15 15 16 15 14 14 12 12 12 13 12 12 13 16 15 14 14 17 17 16 18 15 18 19 22 23 22 24 24 24 26 27
7 10 9 9 8 9 11 12 14 14 13 12 15 16 17 18 19 18 17 18 16 14 15 15 15 15 14 16 16 15 16 14 15 16 19 20 16 20 26 26 26 22 22
3 5 7 8 9 7 10 11 8 11 12 15 14 13 14 16 16 17 13 16 16 15 14 14 14 15 15 14 17 14 16 15 16 14 15 14 13 13 5 11 12 11 13
11 12 12 14 13 10 15 15 11 7 8 10 12 13 14 14 15 17 19 21 19 17 16 14 14 15 18 16 15 14 14 14 17 10 13 8 6 8 8 8 15 16 16
11 12 12 12 13 13 19 18 14 5 5 7 8 10 8 7 10 10 12 18 19 20 20 18 19 16 16 12 10 14 15 15 16 5 5 1 5 7 6 8 18 21 22
12 11 11 11 11 12 19 18 14 3 3 13 14 13 10 11 13 13 10 9 6 11 11 6 7 9 8 9 6 6 5 4 1 3 3 2 2 3 4 5 16 16 17
12 12 11 12 11 14 22 20 10 5 11 13 12 15 13 12 19 18 7 5 7 8 14 22 22 20 20 23 18 4 4 3 4 1 6 2 3 3 1 3 5 16 17
12 10 12 13 16 15 24 22 13 8 10 8 11 13 21 16 20 21 11 7 10 9 9 10 11 14 16 17 23 13 7 5 4 3 6 5 2 1 2 1 5 4 5
Wind_Direction
183 172 164 163 154 177 175 176 168 165 172 158 165 168 168 149 144 148 146 156 160 158 167 165 156 151 154 153 149 152 154 161 161 158 159 163 164 155 149 149 151 149 145
168 163 160 161 158 172 170 179 159 168 172 164 167 165 166 159 172 166 145 160 166 166 157 168 164 165 162 160 159 162 163 171 171 169 166 168 173 169 166 167 164 165 167
165 162 164 152 157 163 168 187 168 172 170 167 164 167 163 168 160 166 159 155 163 161 170 177 170 172 172 167 169 175 176 181 179 179 178 181 188 185 183 180 185 189 189
168 172 173 156 149 159 159 183 169 172 174 170 164 163 164 170 161 167 184 167 165 171 174 182 179 175 176 176 181 186 189 192 193 194 191 197 198 202 199 198 203 205 206
191 175 172 159 148 152 169 179 179 171 171 169 168 166 163 163 168 168 177 200 172 176 185 153 174 181 186 188 191 198 198 202 204 206 204 205 210 211 210 214 215 218 220
192 179 169 154 153 151 170 194 176 175 174 174 167 164 168 164 175 173 186 193 176 196 197 166 183 194 194 199 206 212 210 208 213 215 216 217 217 219 218 221 225 228 229
193 175 161 154 160 159 169 199 180 172 180 170 165 155 161 170 180 180 196 200 190 191 198 204 202 202 182 208 221 217 222 221 216 219 224 222 224 225 224 227 230 232 235
197 185 157 162 161 158 169 188 183 176 176 180 175 169 161 170 201 206 194 205 195 195 200 210 215 215 217 195 212 216 231 231 225 222 224 225 226 226 229 232 234 235 238
203 198 161 164 162 161 174 185 184 183 172 182 198 189 167 195 178 189 204 204 203 221 215 208 215 219 218 226 206 209 216 234 244 243 229 224 223 224 223 227 231 235 238
168 167 163 162 165 166 175 188 186 185 180 187 203 207 203 241 184 166 203 207 207 211 214 211 212 216 218 224 227 232 201 215 230 239 245 245 235 229 229 230 232 232 233
144 150 144 156 157 168 183 190 186 193 190 194 190 208 213 195 216 191 182 197 210 218 219 216 223 215 210 218 223 230 219 211 219 228 236 242 244 244 240 236 235 235 235
148 156 153 164 163 177 185 186 185 190 191 201 197 201 212 204 202 215 234 196 209 202 215 216 220 229 219 215 223 230 212 216 219 225 229 234 239 241 243 244 242 240 240
166 170 161 168 168 177 183 184 185 191 198 202 204 206 211 218 225 222 228 229 227 221 207 221 222 229 233 224 224 221 228 223 221 227 232 233 234 236 240 243 246 246 246
181 175 179 177 179 169 162 172 182 193 199 208 206 215 211 216 232 227 224 234 236 245 214 232 217 224 224 224 220 218 235 218 225 229 231 234 237 238 240 242 243 244 245
197 182 186 182 180 178 174 174 176 187 190 204 213 209 221 216 231 237 238 241 244 250 248 212 222 214 231 231 234 240 237 229 219 224 227 230 234 237 239 241 242 242 243
192 190 176 182 175 183 188 185 191 189 189 201 206 204 210 221 240 227 232 235 250 250 257 264 261 275 242 244 242 239 243 242 233 228 227 231 232 230 235 238 242 244 245
194 193 190 181 178 180 187 187 193 197 204 206 203 204 210 204 206 212 194 223 235 244 254 257 262 266 273 274 257 253 253 257 255 227 230 230 230 232 232 235 236 237 240
197 194 196 187 188 186 187 187 192 193 203 214 218 217 216 204 211 213 201 225 233 239 243 254 252 258 250 249 261 251 251 254 248 243 223 224 228 230 233 235 236 239 241
188 196 197 195 196 199 202 198 204 208 211 214 218 224 224 224 230 231 231 236 238 241 241 245 252 248 249 248 246 249 250 250 250 254 238 236 238 240 241 242 242 242 242
199 189 195 199 202 209 216 215 217 220 214 222 227 224 230 232 239 242 240 237 240 241 236 232 243 248 248 252 254 258 258 252 251 248 244 248 244 233 239 245 247 254 253
319 234 206 198 201 56 27 360 287 229 229 234 234 238 240 242 241 241 244 238 237 240 242 241 242 252 253 251 251 254 256 259 255 256 257 256 254 240 9 14 337 314 276
49 53 49 58 65 53 14 15 4 300 285 260 251 250 250 246 247 239 239 247 256 262 257 252 250 245 251 259 259 260 264 266 266 248 252 256 35 55 39 30 26 57 52
56 56 54 67 61 35 13 3 350 312 296 301 320 350 330 328 336 321 260 244 255 258 252 264 266 260 268 283 309 278 270 265 268 331 333 268 47 76 61 51 49 61 70
67 65 59 64 63 36 13 356 331 308 9 63 46 26 11 0 5 341 312 315 298 41 21 18 34 33 34 3 328 302 324 324 62 56 350 118 68 69 56 58 60 59 67
70 67 61 51 57 43 19 7 353 68 75 65 54 40 33 28 9 353 307 279 104 80 58 67 65 55 42 34 27 337 3 287 271 112 21 153 157 123 105 69 48 58 56
73 71 65 54 37 44 29 27 32 61 67 68 58 45 36 35 31 29 39 35 66 47 53 49 46 42 39 36 36 37 6 345 355 69 6 357 94 96 104 54 67 24 51